Location: Roland
(31.1349°N, 85.4372°W)
Time: 05:00:15
(UTC+00:00)

SR - All Passes

Search period start: 14 April 2021 00:00
Search period end: 24 April 2021 00:00
Orbit: 573 x 882 km, 66.7° (Epoch: 12 April)

Date Brightness Start Highest point End Pass type
(mag) Time Alt. Az. Time Alt. Az. Time Alt. Az.
14 Apr - 00:20:15 10° NNW 00:25:54 64° WSW 00:31:05 10° SSE daylight
14 Apr - 13:02:56 10° SSE 13:07:23 27° ESE 13:12:08 10° NE daylight
14 Apr - 14:44:23 10° WSW 14:49:17 34° WNW 14:54:31 10° N daylight
14 Apr - 23:30:28 10° NNW 23:36:08 61° ENE 23:41:22 10° SE daylight
15 Apr - 01:14:50 10° WNW 01:17:30 14° WSW 01:20:04 10° SW visible
15 Apr - 12:16:03 10° ESE 12:18:03 12° ESE 12:20:06 10° E daylight
15 Apr - 13:53:58 10° SSW 13:59:20 70° WNW 14:05:07 10° NNE daylight
15 Apr - 22:41:10 10° N 22:46:09 29° ENE 22:50:47 10° ESE daylight
16 Apr - 00:23:16 10° NW 00:28:08 31° WSW 00:32:42 10° SSW daylight
16 Apr - 13:04:23 10° S 13:09:37 56° ESE 13:15:15 10° NE daylight
16 Apr - 14:48:16 10° W 14:52:07 19° NW 14:56:08 10° N daylight
16 Apr - 21:52:38 10° NNE 21:55:54 15° NE 21:59:03 10° E daylight
16 Apr - 23:32:56 10° NNW 23:38:36 69° WSW 23:43:46 10° SSE daylight
17 Apr - 12:15:45 10° SSE 12:20:07 26° ESE 12:24:44 10° NE daylight
17 Apr - 13:56:56 10° SW 14:01:57 36° WNW 14:07:17 10° N daylight
17 Apr - 22:43:12 10° NNW 22:48:49 56° ENE 22:53:58 10° SE daylight
18 Apr - 00:27:15 10° WNW 00:30:13 15° WSW 00:33:06 10° SW daylight
18 Apr - 11:29:21 10° ESE 11:30:48 11° E 11:32:15 10° E daylight
18 Apr - 13:06:37 10° SSW 13:12:01 75° WNW 13:17:51 10° NNE daylight
18 Apr - 14:54:35 10° NW 14:55:08 10° NW 14:55:42 10° NW daylight
18 Apr - 21:53:57 10° N 21:58:47 27° NE 22:03:18 10° ESE daylight
18 Apr - 23:35:53 10° NW 23:40:51 33° WSW 23:45:28 10° S daylight
19 Apr - 12:17:07 10° S 12:22:19 52° ESE 12:27:54 10° NE daylight
19 Apr - 14:00:42 10° W 14:04:45 20° NW 14:08:58 10° N daylight
19 Apr - 21:05:34 10° NNE 21:08:31 14° NE 21:11:22 10° E daylight
19 Apr - 22:45:38 10° NNW 22:51:17 74° WSW 22:56:28 10° SSE daylight
20 Apr - 11:28:35 10° SSE 11:32:50 24° ESE 11:37:18 10° NE daylight
20 Apr - 13:09:30 10° SW 13:14:37 39° WNW 13:20:03 10° N daylight
20 Apr - 21:55:56 10° NNW 22:01:29 52° ENE 22:06:34 10° SE daylight
20 Apr - 23:39:43 10° WNW 23:42:57 16° WSW 23:46:03 10° SW daylight
21 Apr - 12:19:16 10° SSW 12:24:42 81° WNW 12:30:33 10° NNE daylight
21 Apr - 14:06:12 10° WNW 14:07:45 11° NW 14:09:18 10° NNW daylight
21 Apr - 21:06:45 10° N 21:11:26 26° NE 21:15:49 10° ESE daylight
21 Apr - 22:48:30 10° NW 22:53:34 36° WSW 22:58:14 10° S daylight
22 Apr - 11:29:51 10° S 11:35:01 48° ESE 11:40:34 10° NE daylight
22 Apr - 13:13:10 10° WSW 13:17:24 22° NW 13:21:48 10° N daylight
22 Apr - 20:18:33 10° NNE 20:21:08 13° NE 20:23:39 10° ENE daylight
22 Apr - 21:58:19 10° NNW 22:03:58 80° WSW 22:09:08 10° SSE daylight
23 Apr - 10:41:27 10° SSE 10:45:34 22° ESE 10:49:53 10° NE visible
23 Apr - 12:22:04 10° SW 12:27:17 42° WNW 12:32:48 10° N daylight
23 Apr - 21:08:40 10° NNW 21:14:09 48° ENE 21:19:10 10° SE daylight
23 Apr - 22:52:11 10° WNW 22:55:40 17° WSW 22:58:59 10° SW daylight
